Location: Newark
(53.3469°N, 7.1606°E)
Time: 03:35:32
(UTC+00:00)

N. Korean satellite - Pass Details

Date: 20 November 2019
Orbit: 455 x 506 km, 97.2° (Epoch: 10 December)

Event Time Altitude Azimuth Distance (km) Brightness Sun altitude
Rises 17:55:45 0° 222° (SW) 2,579 10.9 -21.4°
Reaches altitude 10° 17:59:38 10° 264° (W) 1,716 10.5 -22.0°
Maximum altitude 18:00:19 10° 275° (W) 1,693 10.4 -22.1°
Drops below altitude 10° 18:01:00 10° 286° (WNW) 1,722 10.3 -22.2°
Sets 18:04:57 0° 328° (NNW) 2,623 10.7 -22.8°
